QFA2543 WAJJ-YBCS

Flight info

Callsign QFA2543
Flight time 2h 15m
Altitude 36000
Route JPA W66 UPNUM/N0451F370 W66 MKE DCT BEGMI G459 WP B473 CS
Aircraft B738/M-SDE2E3FGHIRWXY/LB1

Departure

Time 2026-04-27 06:22
Airport Dortheys Hiyo Eluay International Airport (WAJJ)

Arrival

Time 2026-04-27 08:37
Airport Cairns International Airport (YBCS)
Time Latitude Longitude Altitude Speed Heading
2026-04-27 06:11 -2.57128 140.51264 294 ft 0 kts 33°
2026-04-27 06:14 -2.57131 140.51261 298 ft 2 kts 33°
2026-04-27 06:14 -2.57145 140.51253 295 ft 2 kts 33°
2026-04-27 06:14 -2.57159 140.51244 291 ft 2 kts 33°
2026-04-27 06:15 -2.57173 140.51235 289 ft 2 kts 18°
2026-04-27 06:15 -2.57188 140.51234 288 ft 1 kts 313°
2026-04-27 06:15 -2.57192 140.51239 287 ft 0 kts 303°
2026-04-27 06:17 -2.57189 140.51238 288 ft 1 kts 330°
2026-04-27 06:18 -2.57168 140.51228 289 ft 7 kts 333°
2026-04-27 06:18 -2.57102 140.51181 292 ft 16 kts 323°
2026-04-27 06:18 -2.57003 140.51096 291 ft 19 kts 316°
2026-04-27 06:18 -2.56960 140.50983 291 ft 19 kts 232°
2026-04-27 06:19 -2.57018 140.50940 291 ft 0 kts 214°
2026-04-27 06:20 -2.57018 140.50939 291 ft 1 kts 214°
2026-04-27 06:20 -2.57036 140.50927 291 ft 4 kts 215°
2026-04-27 06:20 -2.57058 140.50912 291 ft 4 kts 215°
2026-04-27 06:20 -2.57080 140.50897 292 ft 4 kts 214°
2026-04-27 06:21 -2.57113 140.50888 293 ft 7 kts 176°
2026-04-27 06:21 -2.57200 140.50977 293 ft 48 kts 126°
2026-04-27 06:21 -2.57558 140.51451 284 ft 121 kts 127°
2026-04-27 06:21 -2.58192 140.52290 276 ft 179 kts 130°
2026-04-27 06:22 -2.59005 140.53333 794 ft 200 kts 130°
2026-04-27 06:22 -2.59882 140.54504 1391 ft 212 kts 127°
2026-04-27 06:22 -2.60746 140.55658 2318 ft 209 kts 126°
2026-04-27 06:22 -2.61658 140.56876 2757 ft 231 kts 126°
2026-04-27 06:23 -2.62700 140.58154 3149 ft 248 kts 140°
2026-04-27 06:23 -2.64256 140.58900 3706 ft 252 kts 171°
2026-04-27 06:23 -2.66029 140.59003 4190 ft 265 kts 182°
2026-04-27 06:23 -2.67909 140.58975 4817 ft 274 kts 183°
2026-04-27 06:24 -2.69835 140.58927 5590 ft 279 kts 183°
2026-04-27 06:24 -2.71791 140.58878 6408 ft 282 kts 183°
2026-04-27 06:24 -2.73762 140.58832 7172 ft 285 kts 183°
2026-04-27 06:24 -2.75762 140.58790 7916 ft 289 kts 182°
2026-04-27 06:25 -2.77786 140.58752 8681 ft 293 kts 182°
2026-04-27 06:25 -2.79839 140.58715 9439 ft 297 kts 182°
2026-04-27 06:25 -2.81917 140.58681 10124 ft 301 kts 182°
2026-04-27 06:25 -2.84064 140.58646 10468 ft 319 kts 182°
2026-04-27 06:26 -2.86361 140.58609 10651 ft 341 kts 182°
2026-04-27 06:26 -2.88792 140.58573 11014 ft 354 kts 182°
2026-04-27 06:26 -2.91275 140.58536 11609 ft 358 kts 182°
2026-04-27 06:26 -2.93739 140.58502 12299 ft 359 kts 182°
2026-04-27 06:27 -2.96259 140.58466 12862 ft 365 kts 182°
2026-04-27 06:27 -2.98810 140.58430 13534 ft 367 kts 182°
2026-04-27 06:27 -3.01373 140.58393 14150 ft 370 kts 182°
2026-04-27 06:27 -3.03965 140.58356 14704 ft 374 kts 181°
2026-04-27 06:28 -3.06585 140.58319 15282 ft 377 kts 181°
2026-04-27 06:28 -3.09220 140.58282 15859 ft 379 kts 181°
2026-04-27 06:28 -3.11865 140.58245 16410 ft 381 kts 181°
2026-04-27 06:28 -3.14493 140.58208 16935 ft 384 kts 181°
2026-04-27 06:29 -3.17176 140.58170 17464 ft 387 kts 181°
2026-04-27 06:29 -3.19882 140.58131 17985 ft 390 kts 181°
2026-04-27 06:29 -3.22612 140.58092 18435 ft 393 kts 181°
2026-04-27 06:29 -3.25364 140.58053 18873 ft 396 kts 181°
2026-04-27 06:30 -3.28131 140.58014 19301 ft 399 kts 180°
2026-04-27 06:30 -3.30921 140.57974 19719 ft 402 kts 180°
2026-04-27 06:30 -3.33725 140.57934 20142 ft 404 kts 180°
2026-04-27 06:30 -3.36548 140.57894 20548 ft 407 kts 180°
2026-04-27 06:31 -3.39392 140.57853 20940 ft 410 kts 180°
2026-04-27 06:31 -3.42218 140.57813 21347 ft 413 kts 180°
2026-04-27 06:31 -3.45103 140.57772 21755 ft 416 kts 180°
2026-04-27 06:31 -3.48006 140.57730 22158 ft 419 kts 180°
2026-04-27 06:32 -3.50925 140.57689 22533 ft 421 kts 180°
2026-04-27 06:32 -3.53871 140.57647 22889 ft 424 kts 180°
2026-04-27 06:32 -3.56834 140.57604 23241 ft 427 kts 180°
2026-04-27 06:32 -3.59821 140.57562 23552 ft 429 kts 180°
2026-04-27 06:33 -3.62783 140.57520 23838 ft 431 kts 180°
2026-04-27 06:33 -3.65791 140.57477 24138 ft 433 kts 180°
2026-04-27 06:33 -3.68810 140.57433 24434 ft 435 kts 180°
2026-04-27 06:33 -3.71843 140.57390 24730 ft 437 kts 180°
2026-04-27 06:34 -3.74891 140.57346 25007 ft 439 kts 180°
2026-04-27 06:34 -3.77955 140.57302 25301 ft 441 kts 180°
2026-04-27 06:34 -3.81027 140.57258 25589 ft 443 kts 180°
2026-04-27 06:34 -3.84113 140.57214 25880 ft 444 kts 180°
2026-04-27 06:35 -3.87208 140.57170 26163 ft 446 kts 180°
2026-04-27 06:35 -3.90325 140.57125 26414 ft 449 kts 180°
2026-04-27 06:35 -3.93452 140.57081 26682 ft 450 kts 180°
2026-04-27 06:35 -3.96591 140.57036 26963 ft 452 kts 180°
2026-04-27 06:36 -3.99744 140.56990 27252 ft 453 kts 180°
2026-04-27 06:36 -4.02909 140.56945 27506 ft 455 kts 180°
2026-04-27 06:36 -4.06043 140.56901 27772 ft 457 kts 180°
2026-04-27 06:36 -4.09233 140.56856 28018 ft 459 kts 180°
2026-04-27 06:37 -4.12428 140.56810 28279 ft 460 kts 180°
2026-04-27 06:37 -4.15641 140.56763 28523 ft 462 kts 180°
2026-04-27 06:37 -4.18864 140.56717 28767 ft 464 kts 180°
2026-04-27 06:37 -4.22105 140.56670 29001 ft 466 kts 180°
2026-04-27 06:38 -4.25355 140.56624 29245 ft 467 kts 180°
2026-04-27 06:38 -4.28613 140.56602 29476 ft 469 kts 178°
2026-04-27 06:38 -4.31841 140.56651 29692 ft 470 kts 178°
2026-04-27 06:38 -4.35125 140.56734 29900 ft 472 kts 177°
2026-04-27 06:39 -4.38417 140.56826 30099 ft 474 kts 177°
2026-04-27 06:39 -4.41715 140.56912 30287 ft 475 kts 177°
2026-04-27 06:39 -4.45025 140.56992 30482 ft 476 kts 178°
2026-04-27 06:39 -4.48342 140.57065 30741 ft 476 kts 178°
2026-04-27 06:40 -4.51644 140.57133 31037 ft 474 kts 178°
2026-04-27 06:40 -4.54944 140.57199 31313 ft 473 kts 178°
2026-04-27 06:40 -4.58237 140.57265 31568 ft 473 kts 178°
2026-04-27 06:40 -4.61530 140.57332 31827 ft 473 kts 178°
2026-04-27 06:41 -4.64821 140.57398 32117 ft 472 kts 178°
2026-04-27 06:41 -4.68058 140.57464 32394 ft 471 kts 178°
2026-04-27 06:41 -4.71342 140.57531 32657 ft 471 kts 178°
2026-04-27 06:41 -4.74625 140.57598 32917 ft 471 kts 178°
2026-04-27 06:42 -4.77897 140.57665 33163 ft 470 kts 178°
2026-04-27 06:42 -4.81172 140.57732 33417 ft 470 kts 178°
2026-04-27 06:42 -4.84443 140.57680 33693 ft 471 kts 184°
2026-04-27 06:42 -4.87680 140.57167 33961 ft 472 kts 192°
2026-04-27 06:43 -4.90867 140.56393 34241 ft 470 kts 193°
2026-04-27 06:43 -4.94023 140.55583 34520 ft 467 kts 194°
2026-04-27 06:43 -4.97165 140.54769 34800 ft 466 kts 194°
2026-04-27 06:43 -5.00303 140.53964 35057 ft 464 kts 194°
2026-04-27 06:44 -5.03430 140.53175 35284 ft 463 kts 193°
2026-04-27 06:44 -5.06557 140.52397 35495 ft 463 kts 193°
2026-04-27 06:44 -5.09679 140.51628 35721 ft 462 kts 193°
2026-04-27 06:44 -5.12792 140.50864 35872 ft 458 kts 193°
2026-04-27 06:45 -5.18945 140.49358 35861 ft 458 kts 193°
2026-04-27 06:45 -5.25137 140.47842 35845 ft 458 kts 193°
2026-04-27 06:46 -5.31339 140.46321 35837 ft 459 kts 193°
2026-04-27 06:46 -5.37540 140.44800 35829 ft 459 kts 193°
2026-04-27 06:47 -5.43746 140.43277 35826 ft 459 kts 194°
2026-04-27 06:47 -5.49953 140.41753 35823 ft 459 kts 194°
2026-04-27 06:48 -5.56156 140.40230 35819 ft 459 kts 194°
2026-04-27 06:48 -5.62351 140.38709 35817 ft 458 kts 194°
2026-04-27 06:49 -5.68513 140.37195 35817 ft 458 kts 194°
2026-04-27 06:49 -5.74701 140.35675 35818 ft 457 kts 194°
2026-04-27 06:50 -5.80887 140.34155 35815 ft 457 kts 194°
2026-04-27 06:50 -5.87076 140.32634 35815 ft 457 kts 194°
2026-04-27 06:51 -5.93247 140.31117 35819 ft 457 kts 194°
2026-04-27 06:51 -5.99391 140.29606 35815 ft 457 kts 194°
2026-04-27 06:52 -6.05574 140.28085 35817 ft 457 kts 194°
2026-04-27 06:52 -6.11807 140.26815 35807 ft 458 kts 185°
2026-04-27 06:53 -6.18170 140.26990 35816 ft 458 kts 176°
2026-04-27 06:53 -6.24541 140.27459 35817 ft 459 kts 176°
2026-04-27 06:54 -6.30917 140.27907 35815 ft 459 kts 176°
2026-04-27 06:54 -6.37310 140.28319 35817 ft 460 kts 177°
2026-04-27 06:55 -6.43670 140.28714 35853 ft 462 kts 177°
2026-04-27 06:55 -6.46880 140.28911 36070 ft 461 kts 177°
2026-04-27 06:55 -6.50071 140.29108 36428 ft 457 kts 177°
2026-04-27 06:56 -6.53237 140.29304 36688 ft 455 kts 177°
2026-04-27 06:56 -6.56397 140.29499 36816 ft 456 kts 177°
2026-04-27 06:56 -6.62779 140.29895 36818 ft 459 kts 177°
2026-04-27 06:57 -6.69140 140.30289 36812 ft 457 kts 177°
2026-04-27 06:57 -6.75453 140.30681 36816 ft 456 kts 177°
2026-04-27 06:58 -6.84922 140.31269 36813 ft 454 kts 177°
2026-04-27 06:59 -6.91233 140.31661 36814 ft 454 kts 177°
2026-04-27 06:59 -6.96520 140.31989 36815 ft 454 kts 177°
2026-04-27 07:00 -7.02785 140.32378 36817 ft 454 kts 177°
2026-04-27 07:00 -7.09093 140.32770 36818 ft 454 kts 177°
2026-04-27 07:01 -7.15424 140.33164 36816 ft 455 kts 177°
2026-04-27 07:01 -7.21709 140.33555 36820 ft 455 kts 177°
2026-04-27 07:02 -7.28069 140.33950 36817 ft 456 kts 177°
2026-04-27 07:02 -7.34414 140.34345 36818 ft 457 kts 177°
2026-04-27 07:03 -7.40769 140.34740 36817 ft 458 kts 177°
2026-04-27 07:03 -7.47134 140.35136 36811 ft 458 kts 177°
2026-04-27 07:04 -7.53460 140.35530 36813 ft 458 kts 177°
2026-04-27 07:04 -7.59841 140.35928 36820 ft 458 kts 177°
2026-04-27 07:05 -7.66211 140.36324 36829 ft 458 kts 177°
2026-04-27 07:05 -7.72583 140.36722 36820 ft 458 kts 177°
2026-04-27 07:06 -7.78908 140.37116 36826 ft 457 kts 177°
2026-04-27 07:06 -7.85262 140.37512 36826 ft 457 kts 177°
2026-04-27 07:07 -7.91606 140.37908 36825 ft 456 kts 177°
2026-04-27 07:07 -7.97951 140.38303 36828 ft 456 kts 177°
2026-04-27 07:08 -8.04290 140.38699 36830 ft 456 kts 178°
2026-04-27 07:08 -8.10579 140.39092 36832 ft 455 kts 178°
2026-04-27 07:09 -8.16897 140.39486 36831 ft 455 kts 178°
2026-04-27 07:09 -8.23213 140.39881 36833 ft 454 kts 178°
2026-04-27 07:10 -8.29525 140.40276 36835 ft 454 kts 178°
2026-04-27 07:10 -8.35836 140.40670 36835 ft 454 kts 178°
2026-04-27 07:11 -8.42147 140.41065 36836 ft 454 kts 178°
2026-04-27 07:11 -8.48458 140.41459 36840 ft 454 kts 178°
2026-04-27 07:12 -8.54777 140.41774 36838 ft 454 kts 181°
2026-04-27 07:12 -8.61097 140.41747 36840 ft 454 kts 182°
2026-04-27 07:13 -8.67419 140.41653 36842 ft 454 kts 182°
2026-04-27 07:13 -8.73707 140.41588 36842 ft 455 kts 182°
2026-04-27 07:14 -8.80040 140.41549 36846 ft 455 kts 182°
2026-04-27 07:14 -8.86383 140.41516 36844 ft 456 kts 182°
2026-04-27 07:15 -8.92729 140.41485 36845 ft 456 kts 182°
2026-04-27 07:15 -8.99080 140.41451 36848 ft 456 kts 182°
2026-04-27 07:16 -9.05443 140.41417 36845 ft 457 kts 182°
2026-04-27 07:16 -9.11798 140.41383 36847 ft 457 kts 182°
2026-04-27 07:17 -9.18156 140.41349 36848 ft 457 kts 182°
2026-04-27 07:17 -9.24510 140.41315 36850 ft 457 kts 182°
2026-04-27 07:18 -9.30859 140.41281 36853 ft 456 kts 182°
2026-04-27 07:18 -9.37172 140.41247 36851 ft 456 kts 182°
2026-04-27 07:19 -9.43512 140.41213 36852 ft 455 kts 182°
2026-04-27 07:19 -9.49843 140.41180 36851 ft 454 kts 182°
2026-04-27 07:20 -9.56170 140.41146 36855 ft 454 kts 182°
2026-04-27 07:20 -9.62486 140.41112 36860 ft 453 kts 182°
2026-04-27 07:21 -9.68797 140.41078 36859 ft 453 kts 183°
2026-04-27 07:21 -9.75094 140.41044 36859 ft 452 kts 183°
2026-04-27 07:22 -9.81388 140.41227 36849 ft 455 kts 173°
2026-04-27 07:22 -9.87440 140.43127 36849 ft 460 kts 155°
2026-04-27 07:23 -9.93046 140.46206 36858 ft 461 kts 153°
2026-04-27 07:23 -9.98657 140.49382 36862 ft 462 kts 153°
2026-04-27 07:24 -10.04294 140.52523 36864 ft 463 kts 153°
2026-04-27 07:24 -10.09958 140.55644 36864 ft 464 kts 154°
2026-04-27 07:25 -10.15640 140.58766 36862 ft 465 kts 154°
2026-04-27 07:25 -10.21342 140.61900 36862 ft 466 kts 153°
2026-04-27 07:26 -10.27012 140.65037 36864 ft 467 kts 154°
2026-04-27 07:26 -10.32729 140.68175 36859 ft 467 kts 154°
2026-04-27 07:27 -10.38453 140.71322 36861 ft 468 kts 154°
2026-04-27 07:27 -10.44179 140.74476 36863 ft 468 kts 154°
2026-04-27 07:28 -10.49902 140.77633 36867 ft 468 kts 154°
2026-04-27 07:28 -10.55622 140.80788 36862 ft 468 kts 154°
2026-04-27 07:29 -10.61337 140.83941 36862 ft 467 kts 154°
2026-04-27 07:29 -10.67013 140.87075 36863 ft 467 kts 154°
2026-04-27 07:30 -10.72719 140.90227 36862 ft 466 kts 154°
2026-04-27 07:30 -10.78422 140.93378 36862 ft 466 kts 154°
2026-04-27 07:31 -10.84122 140.96518 36864 ft 465 kts 155°
2026-04-27 07:31 -10.89877 140.99525 36866 ft 465 kts 156°
2026-04-27 07:32 -10.95660 141.02490 36865 ft 464 kts 156°
2026-04-27 07:32 -11.01392 141.05442 36864 ft 464 kts 156°
2026-04-27 07:33 -11.07155 141.08429 36866 ft 464 kts 156°
2026-04-27 07:33 -11.12912 141.11421 36866 ft 464 kts 156°
2026-04-27 07:34 -11.18667 141.14414 36866 ft 465 kts 156°
2026-04-27 07:34 -11.24429 141.17409 36866 ft 465 kts 156°
2026-04-27 07:35 -11.30193 141.20407 36866 ft 465 kts 156°
2026-04-27 07:35 -11.35959 141.23408 36852 ft 462 kts 157°
2026-04-27 07:36 -11.41633 141.26365 36777 ft 454 kts 157°
2026-04-27 07:36 -11.44440 141.27827 36432 ft 451 kts 157°
2026-04-27 07:36 -11.47236 141.29283 36216 ft 453 kts 157°
2026-04-27 07:36 -11.50017 141.30730 35984 ft 457 kts 157°
2026-04-27 07:37 -11.52868 141.32212 35762 ft 462 kts 157°
2026-04-27 07:37 -11.55737 141.33707 35529 ft 463 kts 157°
2026-04-27 07:37 -11.58605 141.35202 35292 ft 463 kts 157°
2026-04-27 07:37 -11.61479 141.36702 35062 ft 464 kts 156°
2026-04-27 07:38 -11.64349 141.38200 34913 ft 463 kts 157°
2026-04-27 07:38 -11.70095 141.41200 34864 ft 463 kts 157°
2026-04-27 07:39 -11.75840 141.44199 34853 ft 463 kts 157°
2026-04-27 07:39 -11.81547 141.47180 34858 ft 464 kts 157°
2026-04-27 07:40 -11.87295 141.50183 34855 ft 464 kts 157°
2026-04-27 07:40 -11.93044 141.53189 34857 ft 464 kts 157°
2026-04-27 07:41 -11.98785 141.56224 34857 ft 465 kts 153°
2026-04-27 07:41 -12.04033 141.60167 34854 ft 470 kts 145°
2026-04-27 07:42 -12.09087 141.64341 34855 ft 470 kts 145°
2026-04-27 07:42 -12.14184 141.68525 34853 ft 469 kts 145°
2026-04-27 07:43 -12.19297 141.72669 34857 ft 469 kts 146°
2026-04-27 07:43 -12.24422 141.76799 34858 ft 469 kts 146°
2026-04-27 07:44 -12.29556 141.80934 34860 ft 468 kts 146°
2026-04-27 07:44 -12.34640 141.85033 34858 ft 468 kts 146°
2026-04-27 07:45 -12.39757 141.89161 34859 ft 468 kts 146°
2026-04-27 07:45 -12.44864 141.93285 34866 ft 469 kts 146°
2026-04-27 07:46 -12.50035 141.97459 34871 ft 478 kts 146°
2026-04-27 07:46 -12.54415 142.00996 34874 ft 486 kts 146°
2026-04-27 07:47 -12.59764 142.05320 34871 ft 494 kts 146°
2026-04-27 07:47 -12.65192 142.09713 34868 ft 499 kts 146°
2026-04-27 07:48 -12.70656 142.14139 34863 ft 501 kts 146°
2026-04-27 07:48 -12.76135 142.18580 34859 ft 502 kts 146°
2026-04-27 07:49 -12.81613 142.23021 34861 ft 502 kts 146°
2026-04-27 07:49 -12.87051 142.27431 34865 ft 502 kts 146°
2026-04-27 07:50 -12.92531 142.31877 34869 ft 501 kts 146°
2026-04-27 07:50 -12.98003 142.36320 34875 ft 501 kts 146°
2026-04-27 07:51 -13.03432 142.40730 34868 ft 501 kts 146°
2026-04-27 07:51 -13.08894 142.45170 34879 ft 501 kts 146°
2026-04-27 07:52 -13.14358 142.49613 34869 ft 501 kts 146°
2026-04-27 07:52 -13.19821 142.54059 34876 ft 501 kts 146°
2026-04-27 07:53 -13.25284 142.58506 34886 ft 501 kts 146°
2026-04-27 07:53 -13.30720 142.62935 34875 ft 501 kts 146°
2026-04-27 07:54 -13.36195 142.67398 34884 ft 502 kts 147°
2026-04-27 07:54 -13.41660 142.71856 34880 ft 502 kts 147°
2026-04-27 07:55 -13.47106 142.76300 34896 ft 502 kts 147°
2026-04-27 07:55 -13.52585 142.80775 34886 ft 503 kts 147°
2026-04-27 07:56 -13.58067 142.85255 34902 ft 503 kts 147°
2026-04-27 07:56 -13.63549 142.89737 34890 ft 504 kts 147°
2026-04-27 07:57 -13.69036 142.94226 34897 ft 504 kts 147°
2026-04-27 07:57 -13.74527 142.98721 34895 ft 504 kts 147°
2026-04-27 07:58 -13.80026 143.03226 34905 ft 505 kts 147°
2026-04-27 07:58 -13.85520 143.07729 34900 ft 505 kts 147°
2026-04-27 07:59 -13.90980 143.12207 34904 ft 505 kts 147°
2026-04-27 07:59 -13.99239 143.18986 34902 ft 506 kts 147°
2026-04-27 08:00 -14.04751 143.23514 34903 ft 506 kts 147°
2026-04-27 08:00 -14.10254 143.28038 34902 ft 507 kts 147°
2026-04-27 08:01 -14.15769 143.32574 34898 ft 507 kts 147°
2026-04-27 08:01 -14.21246 143.37082 34898 ft 507 kts 147°
2026-04-27 08:02 -14.26763 143.41625 34899 ft 507 kts 147°
2026-04-27 08:02 -14.32278 143.46170 34897 ft 507 kts 147°
2026-04-27 08:03 -14.37794 143.50718 34895 ft 508 kts 147°
2026-04-27 08:03 -14.43316 143.55275 34897 ft 508 kts 147°
2026-04-27 08:04 -14.48846 143.59841 34894 ft 509 kts 147°
2026-04-27 08:04 -14.54386 143.64418 34898 ft 510 kts 147°
2026-04-27 08:05 -14.59892 143.68971 34895 ft 510 kts 147°
2026-04-27 08:05 -14.65443 143.73563 34893 ft 511 kts 147°
2026-04-27 08:06 -14.70992 143.78158 34893 ft 512 kts 147°
2026-04-27 08:06 -14.76543 143.82757 34892 ft 512 kts 148°
2026-04-27 08:07 -14.82100 143.87364 34895 ft 512 kts 148°
2026-04-27 08:07 -14.87670 143.91986 34897 ft 513 kts 147°
2026-04-27 08:08 -14.93243 143.96613 34895 ft 513 kts 147°
2026-04-27 08:08 -14.98779 144.01216 34898 ft 514 kts 147°
2026-04-27 08:09 -15.04233 144.06070 34898 ft 517 kts 144°
2026-04-27 08:09 -15.09571 144.11074 34901 ft 518 kts 144°
2026-04-27 08:10 -15.14931 144.16078 34901 ft 518 kts 144°
2026-04-27 08:10 -15.20314 144.21052 34901 ft 519 kts 144°
2026-04-27 08:11 -15.25689 144.25997 34906 ft 519 kts 144°
2026-04-27 08:11 -15.31088 144.30968 34910 ft 519 kts 144°
2026-04-27 08:12 -15.36494 144.35952 34905 ft 520 kts 144°
2026-04-27 08:12 -15.41817 144.40876 34807 ft 500 kts 144°
2026-04-27 08:13 -15.44386 144.43256 34486 ft 493 kts 144°
2026-04-27 08:13 -15.46963 144.45635 33640 ft 500 kts 143°
2026-04-27 08:13 -15.49587 144.48056 32635 ft 509 kts 144°
2026-04-27 08:13 -15.52250 144.50508 31686 ft 515 kts 144°
2026-04-27 08:14 -15.54943 144.52991 30802 ft 520 kts 144°
2026-04-27 08:14 -15.57654 144.55496 29983 ft 522 kts 144°
2026-04-27 08:14 -15.60352 144.57996 29333 ft 517 kts 144°
2026-04-27 08:14 -15.63011 144.60466 28844 ft 509 kts 143°
2026-04-27 08:15 -15.65626 144.62895 28319 ft 501 kts 143°
2026-04-27 08:15 -15.68208 144.65290 27794 ft 494 kts 143°
2026-04-27 08:15 -15.70771 144.67665 27245 ft 489 kts 143°
2026-04-27 08:15 -15.73259 144.69972 26689 ft 484 kts 142°
2026-04-27 08:16 -15.75757 144.72288 26170 ft 479 kts 142°
2026-04-27 08:16 -15.78211 144.74565 25519 ft 470 kts 142°
2026-04-27 08:16 -15.80670 144.76844 24417 ft 479 kts 141°
2026-04-27 08:16 -15.83176 144.79165 23610 ft 481 kts 140°
2026-04-27 08:17 -15.85654 144.81465 22975 ft 475 kts 140°
2026-04-27 08:17 -15.88105 144.83745 22354 ft 468 kts 140°
2026-04-27 08:17 -15.90519 144.85991 21692 ft 462 kts 140°
2026-04-27 08:17 -15.92891 144.88198 20937 ft 452 kts 140°
2026-04-27 08:18 -15.95219 144.90366 19887 ft 447 kts 141°
2026-04-27 08:18 -15.97498 144.92485 18819 ft 445 kts 141°
2026-04-27 08:18 -15.99824 144.94649 17736 ft 441 kts 141°
2026-04-27 08:18 -16.02063 144.96732 16821 ft 433 kts 141°
2026-04-27 08:19 -16.04274 144.98791 16036 ft 421 kts 141°
2026-04-27 08:19 -16.06444 145.00813 15426 ft 417 kts 140°
2026-04-27 08:19 -16.08598 145.02819 14832 ft 414 kts 140°
2026-04-27 08:19 -16.10736 145.04811 14240 ft 411 kts 140°
2026-04-27 08:20 -16.12860 145.06791 13630 ft 408 kts 140°
2026-04-27 08:20 -16.14966 145.08755 12992 ft 405 kts 140°
2026-04-27 08:20 -16.17051 145.10699 12394 ft 400 kts 140°
2026-04-27 08:20 -16.19105 145.12617 11839 ft 394 kts 140°
2026-04-27 08:21 -16.21135 145.14512 11269 ft 389 kts 140°
2026-04-27 08:21 -16.23099 145.16373 11110 ft 373 kts 136°
2026-04-27 08:21 -16.24764 145.18409 10877 ft 366 kts 129°
2026-04-27 08:21 -16.26249 145.20494 10638 ft 361 kts 127°
2026-04-27 08:22 -16.27727 145.22614 10401 ft 354 kts 127°
2026-04-27 08:22 -16.29143 145.24636 10174 ft 345 kts 127°
2026-04-27 08:22 -16.30546 145.26621 9937 ft 336 kts 127°
2026-04-27 08:22 -16.31919 145.28546 9667 ft 324 kts 127°
2026-04-27 08:23 -16.33250 145.30401 9418 ft 316 kts 128°
2026-04-27 08:23 -16.34555 145.32212 9157 ft 308 kts 128°
2026-04-27 08:23 -16.35829 145.33977 8899 ft 302 kts 128°
2026-04-27 08:23 -16.37078 145.35706 8656 ft 296 kts 128°
2026-04-27 08:24 -16.38291 145.37384 8383 ft 284 kts 128°
2026-04-27 08:24 -16.39455 145.38994 8131 ft 273 kts 128°
2026-04-27 08:24 -16.40574 145.40542 7875 ft 263 kts 128°
2026-04-27 08:24 -16.41658 145.42042 7612 ft 255 kts 128°
2026-04-27 08:25 -16.42717 145.43507 7380 ft 252 kts 128°
2026-04-27 08:25 -16.43772 145.44966 7148 ft 252 kts 128°
2026-04-27 08:25 -16.44834 145.46436 6921 ft 258 kts 128°
2026-04-27 08:26 -16.46100 145.48188 6662 ft 265 kts 128°
2026-04-27 08:26 -16.47213 145.49730 6433 ft 265 kts 128°
2026-04-27 08:26 -16.48316 145.51257 6177 ft 262 kts 128°
2026-04-27 08:26 -16.49399 145.52759 5944 ft 255 kts 128°
2026-04-27 08:27 -16.50430 145.54189 5706 ft 239 kts 128°
2026-04-27 08:27 -16.51400 145.55534 5440 ft 226 kts 128°
2026-04-27 08:27 -16.52320 145.56809 5168 ft 215 kts 128°
2026-04-27 08:27 -16.53186 145.58011 5028 ft 199 kts 128°
2026-04-27 08:28 -16.53993 145.59126 4991 ft 188 kts 130°
2026-04-27 08:28 -16.55007 145.59923 5013 ft 184 kts 153°
2026-04-27 08:28 -16.56183 145.60539 5002 ft 192 kts 152°
2026-04-27 08:28 -16.57373 145.61177 5001 ft 193 kts 154°
2026-04-27 08:29 -16.58579 145.61746 4992 ft 192 kts 155°
2026-04-27 08:29 -16.59804 145.62296 4968 ft 191 kts 155°
2026-04-27 08:29 -16.61038 145.62850 4835 ft 195 kts 155°
2026-04-27 08:29 -16.62269 145.63405 4681 ft 187 kts 155°
2026-04-27 08:30 -16.63410 145.63918 4508 ft 170 kts 155°
2026-04-27 08:30 -16.64433 145.64379 4405 ft 149 kts 155°
2026-04-27 08:30 -16.65328 145.64783 4323 ft 139 kts 155°
2026-04-27 08:30 -16.66220 145.65185 4185 ft 138 kts 155°
2026-04-27 08:31 -16.67088 145.65576 4057 ft 134 kts 154°
2026-04-27 08:31 -16.67937 145.65959 3959 ft 135 kts 155°
2026-04-27 08:31 -16.68507 145.66216 3855 ft 134 kts 154°
2026-04-27 08:31 -16.69644 145.66728 3623 ft 133 kts 155°
2026-04-27 08:32 -16.70495 145.67113 3443 ft 134 kts 156°
2026-04-27 08:32 -16.71344 145.67495 3276 ft 132 kts 156°
2026-04-27 08:32 -16.72183 145.67872 3101 ft 133 kts 157°
2026-04-27 08:32 -16.73016 145.68245 2911 ft 127 kts 155°
2026-04-27 08:33 -16.73567 145.68495 2806 ft 129 kts 155°
2026-04-27 08:33 -16.74403 145.68873 2638 ft 131 kts 155°
2026-04-27 08:33 -16.75491 145.69363 2404 ft 129 kts 157°
2026-04-27 08:33 -16.76055 145.69617 2291 ft 131 kts 155°
2026-04-27 08:34 -16.76861 145.69980 2115 ft 125 kts 155°
2026-04-27 08:34 -16.77673 145.70348 1960 ft 131 kts 157°
2026-04-27 08:34 -16.78510 145.70724 1780 ft 130 kts 154°
2026-04-27 08:34 -16.79352 145.71103 1607 ft 133 kts 154°
2026-04-27 08:35 -16.80196 145.71483 1423 ft 131 kts 154°
2026-04-27 08:35 -16.81032 145.71861 1253 ft 131 kts 156°
2026-04-27 08:35 -16.81865 145.72235 1075 ft 130 kts 155°
2026-04-27 08:35 -16.82695 145.72609 907 ft 130 kts 155°
2026-04-27 08:36 -16.83520 145.72982 719 ft 130 kts 155°
2026-04-27 08:36 -16.84357 145.73351 504 ft 132 kts 154°
2026-04-27 08:36 -16.85187 145.73736 303 ft 130 kts 156°
2026-04-27 08:36 -16.86033 145.74117 169 ft 133 kts 154°
2026-04-27 08:37 -16.86879 145.74495 22 ft 129 kts 156°
2026-04-27 08:37 -16.87571 145.74808 22 ft 87 kts 156°
2026-04-27 08:37 -16.87978 145.74990 17 ft 55 kts 158°
2026-04-27 08:37 -16.88293 145.75127 18 ft 42 kts 156°
2026-04-27 08:38 -16.88361 145.75227 17 ft 3 kts 63°
2026-04-27 08:38 -16.88344 145.75262 17 ft 0 kts 63°
2026-04-27 08:38 -16.88336 145.75279 17 ft 0 kts 58°
2026-04-27 08:38 -16.88331 145.75286 16 ft 2 kts 57°
2026-04-27 08:39 -16.88329 145.75290 16 ft 1 kts 56°
2026-04-27 08:39 -16.88323 145.75299 18 ft 2 kts 56°
2026-04-27 08:39 -16.88308 145.75311 15 ft 3 kts 22°
2026-04-27 08:39 -16.88276 145.75307 0 ft 7 kts 341°
2026-04-27 08:40 -16.88205 145.75277 15 ft 15 kts 337°
2026-04-27 08:40 -16.88088 145.75224 16 ft 21 kts 336°
2026-04-27 08:40 -16.87956 145.75163 14 ft 21 kts 338°
2026-04-27 08:40 -16.87832 145.75109 17 ft 15 kts 336°
2026-04-27 08:41 -16.87759 145.75077 17 ft 6 kts 336°
2026-04-27 08:41 -16.87742 145.75069 17 ft 0 kts 337°
2026-04-27 08:42 -16.87736 145.75067 17 ft 6 kts 337°
2026-04-27 08:42 -16.87670 145.75058 16 ft 6 kts 24°
2026-04-27 08:43 -16.87646 145.75099 16 ft 8 kts 65°
2026-04-27 08:43 -16.87595 145.75118 14 ft 9 kts
2026-04-27 08:43 -16.87556 145.75159 15 ft 8 kts 70°
2026-04-27 08:43 -16.87547 145.75183 18 ft 0 kts 67°